| time (UTC) | temp C | wind direction | speed KPH | gust KPH | rain 1hr cm | rain 24hr cm | rain mn cm | humidity % | barometer mb |
| 20260507200004 | 15 | 142 | 3.2 | 14.5 | 0.00 | 0.00 | 0.00 | 66 | 1014.7 |
| 20260507195404 | 15 | 143 | 1.6 | 12.9 | 0.00 | 0.00 | 0.00 | 66 | 1014.5 |
| 20260507194504 | 15 | 149 | 1.6 | 9.7 | 0.00 | 0.00 | 0.00 | 69 | 1014.3 |
| 20260507193604 | 16 | 3 | 0.0 | 8.0 | 0.00 | 0.00 | 0.00 | 68 | 1014.1 |
| 20260507192704 | 16 | 2 | 0.0 | 8.0 | 0.00 | 0.00 | 0.00 | 69 | 1013.8 |
| 20260507191803 | 16 | 22 | 3.2 | 14.5 | 0.00 | 0.00 | 0.00 | 69 | 1013.4 |
| 20260507191118 | 16 | 8 | 3.2 | 14.5 | 0.00 | 0.00 | 0.00 | 70 | 1013.3 |
| 20260507190005 | 16 | 287 | 1.6 | 14.5 | 0.00 | 0.00 | 0.00 | 74 | 1012.8 |
| 20260507185403 | 16 | 282 | 0.0 | 11.3 | 0.00 | 0.00 | 0.00 | 74 | 1012.6 |
| 20260507184504 | 16 | 277 | 0.0 | 9.7 | 0.00 | 0.00 | 0.00 | 73 | 1012.2 |
| 20260507183603 | 17 | 262 | 0.0 | 6.4 | 0.00 | 0.00 | 0.00 | 72 | 1011.8 |
| 20260507182703 | 17 | 229 | 3.2 | 12.9 | 0.00 | 0.00 | 0.00 | 71 | 1011.6 |
| 20260507182021 | 17 | 208 | 4.8 | 12.9 | 0.00 | 0.00 | 0.00 | 71 | 1011.5 |
| 20260507180903 | 17 | 191 | 3.2 | 9.7 | 0.00 | 0.00 | 0.00 | 70 | 1011.3 |
| 20260507180004 | 17 | 175 | 4.8 | 19.3 | 0.00 | 0.00 | 0.00 | 69 | 1011.4 |
| 20260507175617 | 17 | 181 | 4.8 | 19.3 | 0.00 | 0.00 | 0.00 | 69 | 1011.3 |
| 20260507174504 | 18 | 187 | 4.8 | 11.3 | 0.00 | 0.00 | 0.00 | 68 | 1011.2 |
| 20260507173603 | 18 | 208 | 4.8 | 12.9 | 0.00 | 0.00 | 0.00 | 67 | 1011.2 |
| 20260507172703 | 18 | 227 | 3.2 | 12.9 | 0.00 | 0.00 | 0.00 | 66 | 1011.1 |
| 20260507171804 | 18 | 244 | 1.6 | 11.3 | 0.00 | 0.00 | 0.00 | 65 | 1010.9 |
| 20260507170903 | 18 | 248 | 4.8 | 20.9 | 0.00 | 0.00 | 0.00 | 64 | 1010.9 |
| 20260507170221 | 19 | 255 | 3.2 | 14.5 | 0.00 | 0.00 | 0.00 | 64 | 1010.9 |
| 20260507165403 | 19 | 261 | 4.8 | 16.1 | 0.00 | 0.00 | 0.00 | 64 | 1010.9 |
| 20260507164720 | 19 | 259 | 1.6 | 17.7 | 0.00 | 0.00 | 0.00 | 65 | 1010.8 |
| 20260507163603 | 19 | 184 | 3.2 | 19.3 | 0.00 | 0.00 | 0.00 | 62 | 1010.8 |
| 20260507162920 | 19 | 246 | 1.6 | 11.3 | 0.00 | 0.00 | 0.00 | 62 | 1010.7 |
| 20260507162017 | 19 | 233 | 3.2 | 16.1 | 0.00 | 0.00 | 0.00 | 62 | 1010.8 |
| 20260507160904 | 20 | 227 | 3.2 | 14.5 | 0.00 | 0.00 | 0.00 | 61 | 1010.6 |
| 20260507160004 | 20 | 173 | 3.2 | 16.1 | 0.00 | 0.00 | 0.00 | 59 | 1010.6 |
| 20260507155618 | 21 | 164 | 4.8 | 16.1 | 0.00 | 0.00 | 0.00 | 59 | 1010.6 |
| 20260507154721 | 20 | 162 | 6.4 | 17.7 | 0.00 | 0.00 | 0.00 | 58 | 1010.5 |
| 20260507153603 | 21 | 232 | 4.8 | 16.1 | 0.00 | 0.00 | 0.00 | 57 | 1010.5 |
| 20260507152704 | 21 | 183 | 4.8 | 12.9 | 0.00 | 0.00 | 0.00 | 59 | 1010.5 |
| 20260507151804 | 21 | 179 | 3.2 | 12.9 | 0.00 | 0.00 | 0.00 | 58 | 1010.4 |
| 20260507150904 | 21 | 165 | 6.4 | 20.9 | 0.00 | 0.00 | 0.00 | 59 | 1010.3 |
| 20260507150004 | 21 | 166 | 4.8 | 14.5 | 0.00 | 0.00 | 0.00 | 56 | 1010.3 |
| 20260507145619 | 21 | 165 | 4.8 | 14.5 | 0.00 | 0.00 | 0.00 | 57 | 1010.4 |
| 20260507144504 | 21 | 183 | 4.8 | 14.5 | 0.00 | 0.00 | 0.00 | 56 | 1010.4 |
| 20260507143604 | 20 | 166 | 6.4 | 17.7 | 0.00 | 0.00 | 0.00 | 60 | 1010.4 |
| 20260507142704 | 20 | 161 | 8.0 | 22.5 | 0.00 | 0.00 | 0.00 | 60 | 1010.4 |
| 20260507141803 | 20 | 152 | 4.8 | 19.3 | 0.00 | 0.00 | 0.00 | 63 | 1010.4 |
| 20260507140903 | 20 | 158 | 9.7 | 19.3 | 0.00 | 0.00 | 0.00 | 64 | 1010.5 |
| 20260507140004 | 20 | 150 | 6.4 | 19.3 | 0.00 | 0.00 | 0.00 | 66 | 1010.6 |
| 20260507135404 | 20 | 160 | 9.7 | 20.9 | 0.00 | 0.00 | 0.00 | 65 | 1010.6 |
| 20260507134504 | 20 | 163 | 6.4 | 20.9 | 0.00 | 0.00 | 0.00 | 64 | 1010.5 |
| 20260507133603 | 21 | 150 | 4.8 | 17.7 | 0.00 | 0.00 | 0.00 | 66 | 1010.8 |
| 20260507132703 | 20 | 140 | 4.8 | 19.3 | 0.00 | 0.00 | 0.00 | 66 | 1010.9 |
| 20260507131804 | 19 | 152 | 4.8 | 20.9 | 0.00 | 0.00 | 0.00 | 69 | 1011.1 |
| 20260507130903 | 19 | 172 | 8.0 | 20.9 | 0.00 | 0.00 | 0.00 | 66 | 1011.0 |
| 20260507130004 | 19 | 183 | 8.0 | 16.1 | 0.00 | 0.00 | 0.00 | 65 | 1011.1 |
| 20260507125403 | 19 | 173 | 9.7 | 20.9 | 0.00 | 0.00 | 0.00 | 65 | 1011.1 |
| 20260507124504 | 20 | 159 | 11.3 | 22.5 | 0.00 | 0.00 | 0.00 | 65 | 1011.2 |
| 20260507123603 | 19 | 164 | 8.0 | 19.3 | 0.00 | 0.00 | 0.00 | 65 | 1011.3 |
| 20260507122917 | 20 | 168 | 8.0 | 30.6 | 0.00 | 0.00 | 0.00 | 65 | 1011.3 |
| 20260507121804 | 20 | 167 | 3.2 | 12.9 | 0.00 | 0.00 | 0.00 | 65 | 1011.3 |
| 20260507120904 | 20 | 163 | 3.2 | 22.5 | 0.00 | 0.00 | 0.00 | 66 | 1011.4 |
| 20260507120004 | 19 | 160 | 6.4 | 16.1 | 0.00 | 0.00 | 0.00 | 68 | 1011.4 |
| 20260507115621 | 19 | 157 | 6.4 | 16.1 | 0.00 | 0.00 | 0.00 | 66 | 1011.4 |
| 20260507114504 | 19 | 164 | 8.0 | 19.3 | 0.00 | 0.00 | 0.00 | 66 | 1011.5 |
| 20260507113603 | 20 | 157 | 8.0 | 20.9 | 0.00 | 0.00 | 0.00 | 65 | 1011.5 |
| 20260507112703 | 21 | 153 | 9.7 | 25.7 | 0.00 | 0.00 | 0.00 | 64 | 1011.5 |
| 20260507111803 | 20 | 163 | 9.7 | 20.9 | 0.00 | 0.00 | 0.00 | 65 | 1011.6 |
| 20260507110904 | 20 | 156 | 4.8 | 14.5 | 0.00 | 0.00 | 0.00 | 68 | 1011.6 |
| 20260507110004 | 20 | 170 | 6.4 | 16.1 | 0.00 | 0.00 | 0.00 | 66 | 1011.6 |
| 20260507105404 | 20 | 173 | 6.4 | 16.1 | 0.00 | 0.00 | 0.00 | 65 | 1011.6 |
| 20260507104504 | 20 | 167 | 9.7 | 24.1 | 0.00 | 0.00 | 0.00 | 66 | 1011.7 |
| 20260507103603 | 19 | 159 | 9.7 | 17.7 | 0.00 | 0.00 | 0.00 | 65 | 1011.8 |
| 20260507102704 | 19 | 160 | 11.3 | 20.9 | 0.00 | 0.00 | 0.00 | 65 | 1011.9 |
| 20260507101804 | 18 | 170 | 9.7 | 19.3 | 0.00 | 0.00 | 0.00 | 68 | 1012.0 |
| 20260507100904 | 18 | 204 | 8.0 | 19.3 | 0.00 | 0.00 | 0.00 | 65 | 1012.1 |
| 20260507100004 | 18 | 165 | 4.8 | 19.3 | 0.00 | 0.00 | 0.00 | 70 | 1012.2 |
| 20260507095617 | 18 | 165 | 4.8 | 17.7 | 0.00 | 0.00 | 0.00 | 69 | 1012.3 |
| 20260507094504 | 17 | 182 | 8.0 | 16.1 | 0.00 | 0.00 | 0.00 | 70 | 1012.4 |
| 20260507093604 | 17 | 213 | 9.7 | 20.9 | 0.00 | 0.00 | 0.00 | 69 | 1012.6 |
| 20260507092704 | 18 | 186 | 8.0 | 19.3 | 0.00 | 0.00 | 0.00 | 67 | 1012.4 |
| 20260507091804 | 18 | 166 | 6.4 | 19.3 | 0.00 | 0.00 | 0.00 | 70 | 1012.5 |
| 20260507090904 | 17 | 218 | 4.8 | 17.7 | 0.00 | 0.00 | 0.00 | 73 | 1012.6 |
| 20260507090004 | 17 | 186 | 4.8 | 17.7 | 0.00 | 0.00 | 0.00 | 72 | 1012.6 |
| 20260507085403 | 17 | 188 | 4.8 | 17.7 | 0.00 | 0.00 | 0.00 | 72 | 1012.5 |
| 20260507084504 | 17 | 226 | 1.6 | 8.0 | 0.00 | 0.00 | 0.00 | 74 | 1012.6 |
| 20260507083603 | 16 | 53 | 3.2 | 16.1 | 0.00 | 0.00 | 0.00 | 77 | 1012.5 |
| 20260507082704 | 16 | 269 | 0.0 | 1.6 | 0.00 | 0.00 | 0.00 | 77 | 1012.6 |
| 20260507081804 | 16 | 0 | 0.0 | 0.0 | 0.00 | 0.00 | 0.00 | 77 | 1012.5 |
| 20260507080903 | 15 | 269 | 0.0 | 1.6 | 0.00 | 0.00 | 0.00 | 78 | 1012.5 |
| 20260507080004 | 15 | 270 | 0.0 | 3.2 | 0.00 | 0.00 | 0.00 | 78 | 1012.3 |
| 20260507075404 | 15 | 0 | 0.0 | 0.0 | 0.00 | 0.00 | 0.00 | 79 | 1012.3 |
| 20260507074503 | 15 | 0 | 0.0 | 0.0 | 0.00 | 0.00 | 0.00 | 80 | 1012.3 |
| 20260507073818 | 15 | 0 | 0.0 | 0.0 | 0.00 | 0.00 | 0.00 | 81 | 1012.2 |
| 20260507072703 | 15 | 0 | 0.0 | 0.0 | 0.00 | 0.00 | 0.00 | 80 | 1012.2 |
| 20260507071804 | 15 | 270 | 0.0 | 6.4 | 0.00 | 0.00 | 0.00 | 80 | 1012.3 |
| 20260507070904 | 15 | 270 | 1.6 | 8.0 | 0.00 | 0.00 | 0.00 | 79 | 1012.2 |
| 20260507070008 | 15 | 271 | 1.6 | 8.0 | 0.00 | 0.00 | 0.00 | 80 | 1012.0 |
| 20260507065403 | 15 | 272 | 1.6 | 9.7 | 0.00 | 0.00 | 0.00 | 80 | 1012.1 |
| 20260507064504 | 14 | 294 | 0.0 | 6.4 | 0.00 | 0.00 | 0.00 | 81 | 1012.0 |
| 20260507063603 | 14 | 0 | 0.0 | 0.0 | 0.00 | 0.00 | 0.00 | 84 | 1011.8 |
| 20260507062703 | 14 | 0 | 0.0 | 0.0 | 0.00 | 0.00 | 0.00 | 85 | 1011.7 |
| 20260507061804 | 13 | 0 | 0.0 | 0.0 | 0.00 | 0.00 | 0.00 | 86 | 1011.7 |
| 20260507060904 | 13 | 0 | 0.0 | 0.0 | 0.00 | 0.00 | 0.00 | 86 | 1011.8 |
| 20260507060004 | 13 | 0 | 0.0 | 0.0 | 0.00 | 0.00 | 0.00 | 86 | 1011.6 |
| 20260507055403 | 13 | 0 | 0.0 | 0.0 | 0.00 | 0.00 | 0.00 | 86 | 1011.6 |
| 20260507054504 | 13 | 0 | 0.0 | 0.0 | 0.00 | 0.00 | 0.00 | 87 | 1011.5 |
| 20260507053603 | 13 | 0 | 0.0 | 0.0 | 0.00 | 0.00 | 0.00 | 87 | 1011.4 |
| 20260507052703 | 13 | 0 | 0.0 | 0.0 | 0.00 | 0.00 | 0.00 | 87 | 1011.3 |
| 20260507051803 | 13 | 0 | 0.0 | 0.0 | 0.00 | 0.00 | 0.00 | 86 | 1011.3 |
| 20260507050904 | 13 | 0 | 0.0 | 0.0 | 0.00 | 0.00 | 0.00 | 85 | 1011.3 |
| 20260507050005 | 13 | 297 | 0.0 | 1.6 | 0.00 | 0.00 | 0.00 | 85 | 1011.2 |
| 20260507045403 | 13 | 297 | 0.0 | 1.6 | 0.00 | 0.00 | 0.00 | 84 | 1011.1 |
| 20260507044504 | 13 | 0 | 0.0 | 0.0 | 0.00 | 0.00 | 0.00 | 83 | 1011.1 |
| 20260507043603 | 13 | 0 | 0.0 | 0.0 | 0.00 | 0.00 | 0.00 | 83 | 1010.9 |
| 20260507042703 | 13 | 297 | 0.0 | 9.7 | 0.00 | 0.00 | 0.00 | 82 | 1010.7 |
| 20260507041804 | 13 | 297 | 3.2 | 14.5 | 0.00 | 0.00 | 0.00 | 82 | 1010.8 |
| 20260507040903 | 13 | 297 | 1.6 | 9.7 | 0.00 | 0.00 | 0.00 | 82 | 1010.7 |
| 20260507040004 | 13 | 293 | 1.6 | 9.7 | 0.00 | 0.00 | 0.00 | 82 | 1010.6 |
| 20260507035404 | 13 | 290 | 3.2 | 17.7 | 0.00 | 0.00 | 0.00 | 82 | 1010.7 |
| 20260507034718 | 13 | 285 | 4.8 | 17.7 | 0.00 | 0.00 | 0.00 | 82 | 1010.5 |
| 20260507033603 | 13 | 284 | 3.2 | 16.1 | 0.00 | 0.00 | 0.00 | 82 | 1010.5 |
| 20260507032703 | 13 | 279 | 8.0 | 14.5 | 0.00 | 0.00 | 0.00 | 81 | 1010.4 |
| 20260507031804 | 13 | 291 | 6.4 | 14.5 | 0.00 | 0.00 | 0.00 | 81 | 1010.3 |
| 20260507030903 | 13 | 295 | 6.4 | 12.9 | 0.00 | 0.00 | 0.00 | 81 | 1010.4 |
| 20260507030004 | 13 | 297 | 6.4 | 17.7 | 0.00 | 0.00 | 0.00 | 81 | 1010.4 |
| 20260507025403 | 13 | 305 | 4.8 | 16.1 | 0.00 | 0.00 | 0.00 | 81 | 1010.3 |
| 20260507024503 | 13 | 291 | 4.8 | 17.7 | 0.00 | 0.00 | 0.00 | 81 | 1010.3 |
| 20260507023603 | 13 | 288 | 4.8 | 14.5 | 0.00 | 0.00 | 0.00 | 81 | 1010.4 |
| 20260507022703 | 13 | 288 | 3.2 | 11.3 | 0.00 | 0.00 | 0.00 | 81 | 1010.3 |
| 20260507021803 | 13 | 285 | 4.8 | 19.3 | 0.00 | 0.00 | 0.00 | 82 | 1010.4 |
| 20260507020903 | 13 | 282 | 6.4 | 14.5 | 0.00 | 0.00 | 0.00 | 82 | 1010.4 |
| 20260507020004 | 12 | 279 | 4.8 | 16.1 | 0.00 | 0.00 | 0.00 | 82 | 1010.3 |
| 20260507015617 | 12 | 281 | 4.8 | 14.5 | 0.00 | 0.00 | 0.00 | 83 | 1010.4 |
| 20260507014503 | 12 | 272 | 1.6 | 8.0 | 0.00 | 0.00 | 0.00 | 84 | 1010.1 |
| 20260507013604 | 12 | 269 | 1.6 | 11.3 | 0.00 | 0.00 | 0.00 | 84 | 1010.2 |
| 20260507012703 | 13 | 0 | 0.0 | 0.0 | 0.00 | 0.00 | 0.00 | 83 | 1010.2 |
| 20260507012021 | 13 | 269 | 0.0 | 8.0 | 0.00 | 0.00 | 0.00 | 83 | 1010.1 |
| 20260507010903 | 13 | 269 | 1.6 | 9.7 | 0.00 | 0.00 | 0.00 | 82 | 1010.2 |
| 20260507010004 | 13 | 269 | 0.0 | 8.0 | 0.00 | 0.00 | 0.00 | 82 | 1010.2 |
| 20260507005403 | 13 | 269 | 0.0 | 9.7 | 0.00 | 0.00 | 0.00 | 82 | 1010.3 |
| 20260507004504 | 14 | 0 | 0.0 | 0.0 | 0.00 | 0.00 | 0.00 | 81 | 1010.3 |
| 20260507003603 | 14 | 268 | 0.0 | 8.0 | 0.00 | 0.00 | 0.00 | 80 | 1010.3 |
| 20260507002920 | 14 | 268 | 1.6 | 17.7 | 0.00 | 0.00 | 0.00 | 79 | 1010.4 |
| 20260507001803 | 15 | 269 | 3.2 | 14.5 | 0.00 | 0.00 | 0.00 | 77 | 1010.5 |
| 20260507000904 | 15 | 255 | 6.4 | 14.5 | 0.00 | 0.00 | 0.00 | 77 | 1010.3 |
| 20260507000004 | 15 | 243 | 8.0 | 16.1 | 0.00 | 0.00 | 0.00 | 77 | 1010.5 |
| 20260506235404 | 15 | 246 | 4.8 | 14.5 | 0.00 | 0.00 | 0.00 | 77 | 1010.6 |
| 20260506234721 | 15 | 214 | 3.2 | 11.3 | 0.00 | 0.00 | 0.00 | 78 | 1010.5 |
| 20260506233603 | 15 | 249 | 6.4 | 16.1 | 0.00 | 0.00 | 0.00 | 77 | 1010.7 |
| 20260506232704 | 15 | 261 | 9.7 | 16.1 | 0.00 | 0.00 | 0.00 | 77 | 1010.6 |
| 20260506231804 | 15 | 255 | 6.4 | 16.1 | 0.00 | 0.00 | 0.00 | 77 | 1010.7 |
| 20260506230904 | 15 | 265 | 6.4 | 16.1 | 0.00 | 0.00 | 0.00 | 78 | 1010.7 |
| 20260506230004 | 15 | 256 | 1.6 | 9.7 | 0.00 | 0.00 | 0.00 | 80 | 1010.6 |
| 20260506225404 | 15 | 239 | 3.2 | 11.3 | 0.00 | 0.00 | 0.00 | 79 | 1010.6 |
| 20260506224504 | 15 | 198 | 4.8 | 17.7 | 0.00 | 0.00 | 0.00 | 78 | 1010.5 |
| 20260506223603 | 15 | 250 | 8.0 | 16.1 | 0.00 | 0.00 | 0.00 | 79 | 1010.4 |
| 20260506222921 | 15 | 262 | 6.4 | 20.9 | 0.00 | 0.00 | 0.00 | 79 | 1010.3 |
| 20260506221804 | 15 | 263 | 6.4 | 14.5 | 0.00 | 0.00 | 0.00 | 80 | 1010.2 |
| 20260506221121 | 15 | 268 | 8.0 | 14.5 | 0.00 | 0.00 | 0.00 | 80 | 1010.1 |
| 20260506220022 | 15 | 293 | 4.8 | 16.1 | 0.00 | 0.00 | 0.00 | 81 | 1010.1 |
| 20260506215403 | 15 | 275 | 4.8 | 16.1 | 0.00 | 0.00 | 0.00 | 81 | 1010.0 |
| 20260506214504 | 15 | 278 | 6.4 | 14.5 | 0.00 | 0.00 | 0.00 | 80 | 1009.9 |
| 20260506213603 | 15 | 278 | 8.0 | 19.3 | 0.00 | 0.00 | 0.00 | 79 | 1010.0 |
| 20260506212703 | 15 | 275 | 6.4 | 16.1 | 0.00 | 0.00 | 0.00 | 78 | 1010.0 |
| 20260506211803 | 15 | 285 | 4.8 | 12.9 | 0.00 | 0.00 | 0.00 | 79 | 1009.9 |
| 20260506210904 | 15 | 271 | 3.2 | 9.7 | 0.00 | 0.00 | 0.00 | 79 | 1009.7 |
| 20260506210004 | 15 | 276 | 1.6 | 11.3 | 0.00 | 0.00 | 0.00 | 80 | 1009.7 |
| 20260506205403 | 15 | 280 | 3.2 | 16.1 | 0.00 | 0.00 | 0.00 | 79 | 1009.7 |
| 20260506204504 | 15 | 300 | 1.6 | 16.1 | 0.00 | 0.00 | 0.00 | 79 | 1009.5 |
| 20260506203604 | 15 | 286 | 4.8 | 16.1 | 0.00 | 0.00 | 0.00 | 78 | 1009.5 |
| 20260506202703 | 15 | 279 | 6.4 | 17.7 | 0.00 | 0.00 | 0.00 | 77 | 1009.6 |
| 20260506202020 | 15 | 252 | 3.2 | 12.9 | 0.00 | 0.00 | 0.00 | 78 | 1009.6 |
| 20260506200904 | 15 | 175 | 0.0 | 8.0 | 0.00 | 0.00 | 0.00 | 78 | 1009.4 |